Location: Prague
(50.0830°N, 14.4670°E)
Time: 16:46:39
(UTC+02:00)

FO-29 - Visible Passes

Search period start: 01 April 2023 00:00
Search period end: 11 April 2023 00:00
Orbit: 801 x 1320 km, 98.5° (Epoch: 31 March)

Date Brightness Start Highest point End Pass type
(mag) Time Alt. Az. Time Alt. Az. Time Alt. Az.
01 Apr 12.5 04:14:41 10° NE 04:18:54 16° E 04:22:55 10° ESE visible
01 Apr 10.4 05:57:48 10° NNE 06:05:29 69° ESE 06:12:22 10° S visible
02 Apr 11.7 05:03:14 10° NNE 05:09:55 33° E 05:15:59 10° SSE visible
03 Apr 12.5 04:10:02 10° NE 04:13:44 14° ENE 04:17:16 10° ESE visible
03 Apr 10.5 05:52:51 10° NNE 06:00:25 66° E 06:07:10 10° S visible
04 Apr 11.8 04:58:20 10° NNE 05:04:48 31° E 05:10:39 10° SSE visible
05 Apr 12.5 04:05:27 10° NE 04:08:33 13° ENE 04:11:32 10° ESE visible
05 Apr 10.5 05:47:54 10° NNE 05:55:21 62° E 06:01:56 10° S visible
06 Apr 11.9 04:53:28 10° NNE 04:59:39 28° E 05:05:17 10° SE visible
07 Apr 12.6 04:01:03 10° ENE 04:03:22 12° ENE 04:05:37 10° E visible
07 Apr 10.6 05:42:58 10° NNE 05:50:15 58° E 05:56:42 10° S visible
08 Apr 11.9 04:48:36 10° NNE 04:54:31 26° E 04:59:53 10° SE visible
09 Apr 12.8 03:57:06 10° ENE 03:58:10 10° ENE 03:59:14 10° E visible
09 Apr 10.7 05:38:01 10° NNE 05:45:09 54° E 05:51:27 10° S visible
10 Apr 12.0 04:43:45 10° NNE 04:49:21 24° E 04:54:28 10° SE visible
